Regional Weather Roundup
Issued by NWS

Home | Current Version | Previous Version | Text Only | Print | Product List | Glossary On
Versions: 1 2 3 4 5 6 7 8 9 10 11 12 13 14 15 16 17 18 19 20 21 22 23 24 25 26 27 28 29 30 31 32 33 34 35 36 37 38 39 40 41 42 43 44 45 46 47 48 49 50
000
ASUS44 KFWD 270115
RWRTX
NORTH TEXAS HOURLY WEATHER ROUNDUP
NATIONAL WEATHER SERVICE FORT WORTH TX
800 PM CDT MON JUN 26 2017

NOTE: "FAIR" INDICATES FEW OR NO CLOUDS BELOW 12,000 FEET WITH NO
SIGNIFICANT WEATHER AND/OR OBSTRUCTIONS TO VISIBILITY.

TXZ118-119-270200-
DALLAS/FORT WORTH METROPLEX

CITY           SKY/WX    TMP DP  RH WIND       PRES   REMARKS
DFW AIRPORT    CLOUDY    84  70  62 SE6       30.00R
DALLAS LOVE    CLOUDY    85  68  56 E9        30.01R
FTW MEACHAM    CLOUDY    84  71  65 E10       30.00S
DAL-EXECUTIVE  CLOUDY    82  71  69 E7        30.01R
FTW-ALLIANCE   MOCLDY    83  69  62 E8        30.01S
FTW-NAS-JRB    MOCLDY    84  70  61 SE6       30.00S
FTW-SPINKS     MOCLDY    82  71  69 E6        30.03R
ARLINGTON      CLOUDY    83  72  69 E8        30.01R
GRAND PRAIRIE  CLEAR     82  70  65 E7        30.03R
MESQUITE       CLEAR     82  70  65 CALM      30.02R
LANCASTER      CLOUDY    82  71  70 CALM      30.02R
$$

TXZ091>094-102>105-117-120-121-131>134-270200-
NORTH CENTRAL TEXAS

CITY           SKY/WX    TMP DP  RH WIND       PRES   REMARKS
SHRMAN/DENISON CLEAR     81  66  61 NE6       30.05R
GAINESVILLE    PTCLDY    81  67  62 SE6       30.05S
BOWIE          PTCLDY    81  70  68 E3        30.04R
BRIDGEPORT     CLOUDY    82  69  64 E6        30.04F
DECATUR        CLOUDY    82  69  65 E6        30.04S
DENTON         CLOUDY    83  70  64 SE5       30.02R
MCKINNEY       MOCLDY    82  71  69 SE5       30.02R
BONHAM         CLEAR     79  66  65 NE7       30.03S
GREENVILLE     PTCLDY    82  70  65 CALM      30.03R
ROCKWALL       CLOUDY    82  70  68 E6        30.03R
TERRELL        CLOUDY    84  69  60 SE5       30.02R
WAXAHACHIE     CLOUDY    81  72  75 E3        30.03S
CLEBURNE       CLOUDY    82  75  78 E10       30.03S
GRANBURY       CLOUDY    84  71  63 E7        30.02S
$$

TXZ083>090-098>101-113>116-127>130-139>142-154-155-270200-
WESTERN NORTH TEXAS

CITY           SKY/WX    TMP DP  RH WIND       PRES   REMARKS
WICHITA FALLS  CLEAR     82  68  62 SE13      30.01S
WF-KICKAPOO    CLEAR     84  69  61 E7G17     30.04S
VERNON         CLEAR     86  61  43 SE8       30.03S
ABILENE        CLOUDY    78  70  76 SE8       30.05F
ABILENE-DYESS  CLOUDY    80  68  68 E7        30.04S
GRAHAM         PTCLDY    80  68  65 E3        30.02S
BRECKENRIDGE   CLOUDY    83  69  61 SE3       30.03S
CISCO          PTCLDY    81  70  69 SE5       30.06S
EASTLAND       CLOUDY    82  71  69 SE7       30.05R
RANGER         CLOUDY    80  71  75 E3        30.05R
MINERAL WELLS  MOCLDY    82  70  66 E6        30.01S
STEPHENVILLE   CLOUDY    81  69  68 E3        30.06S
COMANCHE       CLOUDY    74  69  83 S3        30.04S
BROWNWOOD      CLOUDY    75  68  78 SE5       30.05S
COLEMAN        CLOUDY    80  67  64 SE16      30.06S
$$

TXZ143>147-156>162-174-175-270200-
CENTRAL TEXAS

CITY           SKY/WX    TMP DP  RH WIND       PRES   REMARKS
WACO           CLOUDY    84  72  67 E5        29.99S
WACO-TSTC      MOCLDY    84  72  65 E6        30.00R
WACO-MCGREGOR  CLOUDY    84  71  65 E5        30.01R
HILLSBORO      CLOUDY    82  74  77 NE5       30.01S
CORSICANA      CLOUDY    84  73  69 E6        30.02R HX  90
MEXIA          CLOUDY    83  70  65 E8        30.00S
HEARNE         CLOUDY    82  74  79 SE5       30.00S
CAMERON        PTCLDY    84  72  67 S8        29.99R
TEMPLE         CLOUDY    83  71  67 E8        30.00S
KILLEEN        MOCLDY    82  70  66 E6        30.01R
KILLEEN-SKYLRK CLOUDY    81  74  79 E3        30.01R
FORT HOOD      PTCLDY    82  70  67 E6        29.98R
HAMILTON       CLOUDY    78  71  78 S6        30.03S
LAMPASAS       CLOUDY    78  74  85 NE5       30.02S
$$

TXZ095>097-106>112-122>126-135>138-148>153-164>167-270200-
EAST TEXAS

CITY           SKY/WX    TMP DP  RH WIND       PRES   REMARKS
PARIS            N/A     80  68  66 E5        30.05R
SULPHUR SPRNGS CLEAR     82  66  58 E5        30.05R
MOUNT PLEASANT MOCLDY    81  65  58 CALM      30.05R
GILMER         MOCLDY    80  68  66 E3        30.03S
MINEOLA        MOCLDY    81  72  74 E8        30.03R
TYLER          PTCLDY    83  67  58 E6        30.02S
LONGVIEW       MOCLDY    81  69  67 E5        30.02S
MARSHALL         N/A     77  67  70 CALM      30.05S
ATHENS         MOCLDY    81  70  69 CALM      30.01R
PALESTINE      CLOUDY    83  74  73 E3        30.02S
JACKSONVILLE   MOCLDY    81  70  68 CALM      30.05S
HENDERSON      MOCLDY    82  69  65 E3        30.04S
CENTER         MOCLDY    83  73  69 CALM      30.04S
NACOGDOCHES    MOCLDY    81  68  65 MISG      30.00F
LUFKIN         MOCLDY    81  72  74 E5        30.00F
$$

SUPPLEMENTAL OBSERVATIONS (NWS FORT WORTH AREA)

CITY           SKY/WX    TMP DP  RH WIND       PRES   REMARKS
DENISON DAM      N/A     81  64  57 E2          N/A
CADDO GRASSLND   N/A     81  66  61 E1          N/A
PAT MAYSE LAKE   N/A     81  64  57 NE2         N/A
GREENVILLE       N/A     82  64  54 E5          N/A
CEDAR HILL       N/A     81  70  69 E1          N/A
LBJ GRASSLAND    N/A     81  68  65 E5          N/A
POSSUM KINGDOM   N/A     82  70  65 E6          N/A
GRANBURY         N/A     82  70  65 E6          N/A
COMANCHE         N/A     73  68  83 S3          N/A
MCGREGOR         N/A     82  72  69 E2          N/A
TEMPLE           N/A     82  70  65 E5          N/A
LAKE LIMESTONE   N/A     82  72  69 E5          N/A
ATHENS           N/A     82  70  65 E3          N/A
$$

SUPPLEMENTAL OBSERVATIONS (NWS NORMAN AREA)

CITY           SKY/WX    TMP DP  RH WIND       PRES   REMARKS
GOODLETT         N/A     85  62  47 SE12      30.02S
CROWELL          N/A     85  67  55 E10       30.04R
KNOX CITY        N/A     85  64  48 SE10      30.03S
SEYMOUR          N/A     84  67  56 E9        30.03S
$$

SUPPLEMENTAL OBSERVATIONS (NWS SAN ANGELO AREA)

CITY           SKY/WX    TMP DP  RH WIND       PRES   REMARKS
WEINERT          N/A     85  68  57 SE12      30.03F
HASKELL          N/A     83  65  54 SE7       30.04S
THROCKMORTON     N/A     82  71  69 E9        30.04S
STAMFORD         N/A     84  68  57 E13       30.04S
CLYDE            N/A     78  68  71 E8        30.08S
HAMBY            N/A     81  66  61 SE8         N/A
IVIE RESERVOIR   N/A     72  66  83 SE5G14      N/A
COLORADO BEND    N/A     79  70  73 E1          N/A
$$

SUPPLEMENTAL OBSERVATIONS (NWS SHREVEPORT AREA)

CITY           SKY/WX    TMP DP  RH WIND       PRES   REMARKS
CLARKSVILLE      N/A     81  63  54 SE1         N/A
CADDO LAKE       N/A     79  73  83 CALM        N/A
GILMER           N/A     81  66  61 E2          N/A
HENDERSON        N/A     82  68  61 E5          N/A
LUFKIN           N/A     82  70  65 MISG        N/A
N SABINE NF      N/A     77  72  83 MISG        N/A
S SABINE NF      N/A     81  70  69 E1          N/A
$$

SUPPLEMENTAL OBSERVATIONS ARE A COLLECTION OF AUTOMATED INSTRUMENTS
THAT ARE MAINTAINED BY A VARIETY OF FEDERAL AND STATE AGENCIES.
CERTAIN ELEMENTS...SUCH AS HUMIDITY VALUES AND SUSTAINED WIND
SPEEDS...MAY BE APPROXIMATED.





USA.gov is the U.S. government's official web portal to all federal, state and local government web resources and services.